Precipitable_Water
0.42 0.42 0.42 0.40 0.39 0.39 0.38 0.40 0.36 0.38 0.41 0.44 0.50 0.54 0.56 0.53 0.48 0.49 0.48 0.46 0.50 0.50 0.52 0.52 0.53 0.60 0.64 0.67 0.66 0.65 0.62 0.59 0.56 0.57 0.57 0.57 0.56 0.57 0.57 0.57 0.57 0.58 0.56 0.53
0.39 0.43 0.43 0.38 0.42 0.43 0.43 0.43 0.42 0.44 0.37 0.49 0.52 0.52 0.48 0.41 0.40 0.40 0.42 0.42 0.46 0.48 0.48 0.45 0.47 0.52 0.58 0.59 0.59 0.59 0.56 0.52 0.50 0.49 0.50 0.52 0.53 0.55 0.55 0.55 0.55 0.53 0.54 0.56
0.29 0.37 0.39 0.32 0.37 0.41 0.41 0.46 0.45 0.38 0.41 0.48 0.43 0.38 0.37 0.33 0.38 0.39 0.40 0.41 0.46 0.50 0.43 0.43 0.45 0.47 0.50 0.54 0.57 0.55 0.51 0.51 0.50 0.47 0.47 0.49 0.50 0.48 0.47 0.46 0.47 0.48 0.52 0.52
0.29 0.32 0.21 0.30 0.38 0.38 0.36 0.37 0.40 0.40 0.39 0.38 0.37 0.39 0.38 0.36 0.35 0.35 0.33 0.34 0.34 0.36 0.37 0.41 0.44 0.47 0.51 0.53 0.54 0.53 0.49 0.48 0.46 0.44 0.44 0.46 0.44 0.42 0.42 0.42 0.44 0.47 0.48 0.48
0.26 0.25 0.26 0.28 0.27 0.31 0.32 0.30 0.40 0.39 0.38 0.38 0.41 0.41 0.35 0.40 0.39 0.33 0.36 0.37 0.35 0.36 0.38 0.40 0.43 0.44 0.46 0.49 0.53 0.53 0.47 0.46 0.44 0.44 0.43 0.45 0.41 0.40 0.41 0.41 0.43 0.44 0.45 0.45
0.28 0.23 0.19 0.25 0.32 0.38 0.37 0.26 0.41 0.40 0.38 0.37 0.40 0.31 0.27 0.40 0.41 0.36 0.37 0.37 0.35 0.38 0.39 0.40 0.42 0.45 0.45 0.49 0.51 0.49 0.47 0.43 0.43 0.42 0.41 0.40 0.40 0.39 0.40 0.42 0.41 0.42 0.42 0.42
0.25 0.24 0.29 0.36 0.37 0.41 0.26 0.27 0.42 0.42 0.39 0.38 0.35 0.37 0.40 0.43 0.37 0.39 0.38 0.38 0.38 0.39 0.40 0.43 0.46 0.47 0.46 0.49 0.45 0.47 0.46 0.41 0.42 0.41 0.41 0.42 0.42 0.43 0.42 0.41 0.40 0.40 0.40 0.42
0.25 0.22 0.20 0.39 0.40 0.34 0.40 0.46 0.43 0.41 0.38 0.38 0.41 0.41 0.40 0.40 0.38 0.36 0.38 0.40 0.40 0.41 0.43 0.47 0.50 0.48 0.44 0.43 0.46 0.43 0.40 0.39 0.38 0.39 0.40 0.40 0.40 0.42 0.41 0.41 0.39 0.38 0.39 0.39
0.23 0.25 0.37 0.37 0.33 0.36 0.40 0.39 0.38 0.36 0.36 0.34 0.35 0.39 0.40 0.40 0.41 0.40 0.40 0.41 0.45 0.44 0.46 0.49 0.50 0.49 0.42 0.43 0.42 0.36 0.35 0.34 0.35 0.38 0.39 0.39 0.38 0.39 0.40 0.41 0.40 0.39 0.39 0.38
0.19 0.20 0.23 0.27 0.32 0.33 0.33 0.31 0.29 0.31 0.31 0.31 0.32 0.36 0.39 0.42 0.44 0.43 0.42 0.44 0.47 0.46 0.47 0.46 0.48 0.47 0.46 0.43 0.35 0.30 0.26 0.27 0.31 0.33 0.35 0.37 0.40 0.42 0.42 0.41 0.39 0.39 0.39 0.39
0.15 0.16 0.17 0.16 0.16 0.18 0.20 0.21 0.24 0.28 0.27 0.28 0.31 0.37 0.40 0.43 0.45 0.47 0.44 0.46 0.50 0.48 0.45 0.45 0.47 0.45 0.42 0.30 0.27 0.26 0.27 0.28 0.30 0.33 0.36 0.38 0.41 0.42 0.42 0.44 0.45 0.42 0.42 0.41
0.10 0.12 0.13 0.14 0.16 0.19 0.18 0.18 0.21 0.22 0.23 0.24 0.29 0.34 0.39 0.43 0.48 0.50 0.47 0.47 0.48 0.48 0.45 0.45 0.43 0.36 0.29 0.29 0.28 0.27 0.27 0.30 0.33 0.36 0.38 0.38 0.39 0.41 0.45 0.45 0.46 0.46 0.46 0.44
0.18 0.19 0.21 0.21 0.20 0.22 0.21 0.21 0.22 0.22 0.22 0.22 0.25 0.32 0.37 0.39 0.46 0.51 0.53 0.49 0.48 0.46 0.45 0.38 0.32 0.29 0.30 0.31 0.33 0.32 0.33 0.34 0.35 0.34 0.36 0.35 0.36 0.37 0.37 0.42 0.45 0.45 0.44 0.44
0.28 0.28 0.24 0.24 0.24 0.23 0.25 0.25 0.26 0.24 0.22 0.23 0.29 0.34 0.32 0.35 0.43 0.50 0.55 0.53 0.51 0.47 0.42 0.37 0.34 0.32 0.35 0.37 0.37 0.37 0.36 0.32 0.31 0.32 0.33 0.34 0.35 0.37 0.39 0.38 0.38 0.39 0.44 0.43
0.30 0.33 0.30 0.32 0.33 0.28 0.29 0.28 0.26 0.23 0.21 0.24 0.28 0.26 0.27 0.34 0.42 0.48 0.53 0.58 0.52 0.50 0.44 0.38 0.36 0.36 0.41 0.40 0.39 0.35 0.30 0.29 0.32 0.32 0.33 0.33 0.34 0.36 0.38 0.38 0.39 0.39 0.40 0.41
0.29 0.31 0.31 0.33 0.34 0.33 0.32 0.29 0.26 0.23 0.24 0.23 0.24 0.27 0.33 0.40 0.44 0.47 0.56 0.57 0.48 0.48 0.41 0.39 0.37 0.39 0.43 0.43 0.38 0.31 0.30 0.34 0.37 0.38 0.37 0.34 0.35 0.36 0.37 0.37 0.38 0.38 0.38 0.37
0.28 0.24 0.28 0.29 0.30 0.31 0.28 0.27 0.26 0.28 0.33 0.36 0.37 0.45 0.45 0.44 0.46 0.46 0.55 0.58 0.54 0.50 0.44 0.39 0.38 0.42 0.45 0.42 0.36 0.31 0.33 0.36 0.37 0.38 0.38 0.37 0.35 0.35 0.36 0.36 0.36 0.37 0.37 0.38
0.40 0.39 0.33 0.30 0.31 0.32 0.33 0.36 0.42 0.43 0.45 0.47 0.48 0.49 0.48 0.47 0.43 0.48 0.56 0.57 0.52 0.50 0.43 0.41 0.42 0.44 0.44 0.41 0.37 0.34 0.36 0.37 0.38 0.37 0.36 0.36 0.36 0.37 0.36 0.36 0.36 0.36 0.36 0.36
0.37 0.39 0.40 0.39 0.39 0.39 0.41 0.43 0.43 0.45 0.46 0.48 0.48 0.47 0.49 0.50 0.51 0.54 0.57 0.53 0.50 0.43 0.41 0.45 0.43 0.43 0.41 0.42 0.38 0.37 0.37 0.38 0.37 0.35 0.34 0.35 0.35 0.36 0.35 0.35 0.35 0.34 0.34 0.33
0.35 0.34 0.35 0.37 0.38 0.36 0.35 0.35 0.35 0.37 0.43 0.46 0.49 0.49 0.48 0.49 0.52 0.53 0.52 0.46 0.45 0.44 0.46 0.46 0.45 0.41 0.41 0.43 0.39 0.39 0.38 0.39 0.36 0.33 0.32 0.32 0.32 0.33 0.33 0.33 0.33 0.32 0.32 0.31
0.35 0.34 0.32 0.31 0.32 0.33 0.33 0.32 0.31 0.31 0.34 0.39 0.42 0.44 0.48 0.49 0.48 0.47 0.45 0.43 0.46 0.48 0.49 0.49 0.47 0.42 0.43 0.42 0.40 0.40 0.40 0.39 0.35 0.31 0.30 0.30 0.31 0.31 0.32 0.32 0.31 0.30 0.30 0.29
0.35 0.34 0.34 0.35 0.33 0.31 0.32 0.32 0.31 0.30 0.30 0.31 0.34 0.39 0.42 0.42 0.45 0.46 0.48 0.47 0.50 0.51 0.50 0.49 0.44 0.43 0.42 0.41 0.40 0.39 0.42 0.39 0.35 0.31 0.30 0.30 0.30 0.30 0.30 0.29 0.29 0.28 0.28 0.28
0.35 0.36 0.36 0.36 0.34 0.33 0.34 0.35 0.34 0.32 0.30 0.30 0.29 0.32 0.34 0.37 0.40 0.37 0.35 0.44 0.46 0.47 0.45 0.44 0.43 0.43 0.42 0.41 0.40 0.40 0.42 0.38 0.34 0.31 0.31 0.31 0.30 0.30 0.29 0.29 0.29 0.28 0.27 0.27
0.38 0.38 0.38 0.38 0.39 0.38 0.34 0.35 0.36 0.35 0.35 0.35 0.34 0.34 0.33 0.32 0.34 0.39 0.42 0.42 0.42 0.41 0.41 0.41 0.42 0.43 0.43 0.42 0.39 0.42 0.40 0.37 0.34 0.31 0.31 0.31 0.30 0.30 0.29 0.29 0.28 0.28 0.28 0.27
0.38 0.39 0.40 0.40 0.39 0.39 0.40 0.40 0.37 0.34 0.34 0.34 0.35 0.36 0.38 0.38 0.34 0.36 0.39 0.39 0.40 0.41 0.41 0.42 0.41 0.42 0.41 0.40 0.41 0.41 0.38 0.36 0.33 0.31 0.31 0.31 0.30 0.29 0.29 0.29 0.28 0.27 0.27 0.27
0.34 0.33 0.33 0.34 0.34 0.34 0.35 0.36 0.33 0.34 0.32 0.31 0.32 0.34 0.36 0.38 0.39 0.40 0.39 0.38 0.38 0.39 0.39 0.39 0.39 0.39 0.39 0.40 0.41 0.40 0.38 0.36 0.33 0.32 0.32 0.31 0.29 0.28 0.28 0.28 0.27 0.27 0.27 0.27
0.28 0.27 0.27 0.27 0.28 0.28 0.29 0.30 0.31 0.32 0.35 0.34 0.32 0.35 0.34 0.35 0.38 0.38 0.38 0.38 0.38 0.37 0.37 0.38 0.39 0.39 0.39 0.39 0.40 0.40 0.39 0.36 0.33 0.33 0.32 0.31 0.30 0.29 0.28 0.28 0.28 0.28 0.28 0.27
Wind_Speed
31 32 30 30 31 31 32 33 34 32 32 31 30 28 28 30 31 31 31 29 29 29 29 28 26 25 25 24 23 23 23 24 24 24 24 25 25 25 24 24 25 24 25 26
31 33 33 31 33 36 37 35 34 32 36 30 32 32 32 33 33 33 33 31 30 29 28 26 25 24 23 22 22 22 22 23 23 24 24 24 25 25 26 26 25 25 26 26
32 32 31 30 34 35 35 38 36 35 37 31 32 29 30 34 32 32 31 30 30 29 27 25 25 23 23 23 22 22 22 22 23 23 23 24 24 23 23 22 22 22 23 24
32 29 33 34 32 33 32 33 33 36 37 35 33 31 31 31 29 28 27 26 26 25 25 25 24 24 23 23 22 22 22 22 22 22 21 20 20 19 19 20 21 21 21 20
29 34 35 34 34 31 31 32 27 34 37 35 29 29 34 27 27 27 27 28 27 27 26 25 25 24 23 23 23 23 23 23 22 21 20 19 19 19 19 19 20 20 20 20
29 26 27 30 33 33 30 30 27 27 27 26 27 28 30 24 27 28 28 28 26 26 25 25 24 24 24 24 24 24 24 24 22 21 20 20 20 21 21 21 21 21 21 21
34 32 29 30 32 31 30 28 27 26 26 24 24 26 29 30 29 27 26 25 25 25 25 24 24 24 24 23 24 24 23 22 22 22 23 23 23 23 23 24 24 23 23 23
28 29 31 28 26 25 27 28 29 30 28 28 27 27 28 28 29 29 28 27 25 24 24 24 24 23 23 23 22 22 22 22 23 24 24 25 26 26 27 27 27 26 25 24
28 27 26 29 31 32 33 34 31 31 31 31 32 31 30 30 31 31 30 28 27 26 25 24 23 23 22 22 22 21 21 22 23 24 25 27 28 29 29 29 28 27 26 25
34 34 34 33 32 34 35 37 38 38 38 37 38 36 35 33 32 31 30 30 29 27 27 26 24 23 22 23 22 21 20 21 23 24 26 28 29 30 30 30 29 28 27 26
37 40 40 42 41 42 40 40 41 40 40 40 39 39 37 35 34 33 32 30 30 29 27 26 26 24 24 22 21 20 21 22 23 25 27 28 29 30 31 31 30 28 27 25
37 40 40 43 43 42 43 43 44 43 44 42 41 40 39 38 36 34 32 31 30 29 27 26 26 25 23 23 21 20 21 22 24 25 27 29 29 29 29 28 26 25 23 22
36 39 40 43 45 44 44 45 45 45 45 45 43 41 39 40 37 34 32 32 32 30 27 26 25 25 24 22 20 20 21 22 24 25 25 25 24 22 21 20 20 19 18 18
31 34 37 37 37 37 37 39 40 41 41 42 43 42 40 38 36 36 33 33 32 29 26 25 24 24 23 20 19 20 20 21 22 22 21 20 19 18 17 16 15 15 16 16
30 32 35 36 35 34 32 32 34 36 37 37 40 43 43 40 38 36 35 35 33 29 26 24 24 24 22 19 19 18 19 19 18 18 17 16 14 13 13 14 15 14 14 15
26 26 25 28 28 29 29 30 29 29 30 33 34 36 38 40 40 39 38 38 35 30 27 25 25 23 21 18 17 17 18 17 17 17 15 14 12 12 13 14 15 15 15 16
20 20 17 17 17 18 19 19 18 20 21 23 26 29 32 33 36 39 41 38 35 31 27 26 25 22 21 19 18 17 16 18 18 17 16 16 15 14 14 15 16 16 16 16
19 18 15 11 6 6 7 10 11 13 15 18 20 24 27 28 31 35 39 36 30 28 27 26 24 22 21 19 18 16 17 17 17 16 15 15 16 16 16 15 15 15 15 15
16 16 11 8 7 7 10 10 10 11 12 12 13 9 13 18 23 29 33 30 29 27 26 25 23 22 21 19 18 17 17 16 16 15 14 14 15 15 15 15 15 15 15 15
15 13 11 10 8 7 8 8 9 9 9 8 8 4 5 13 22 29 28 26 25 23 24 23 22 22 21 19 18 17 17 16 16 15 15 15 15 15 16 15 15 15 15 15
13 11 10 9 9 8 9 10 10 10 10 7 4 3 6 12 15 18 20 21 20 21 21 22 22 21 20 20 18 17 17 16 16 16 15 15 15 15 15 15 15 15 15 15
12 11 11 11 10 10 11 11 11 11 9 8 6 5 5 7 11 13 15 18 19 20 21 21 21 21 20 20 19 18 17 17 17 17 17 16 16 16 16 16 16 16 16 16
12 11 11 10 10 11 11 11 12 11 10 9 8 8 8 11 13 15 16 18 19 20 20 21 21 21 21 20 20 20 19 19 19 19 18 18 18 17 17 17 17 17 17 17
12 12 11 9 9 9 9 9 10 11 10 10 9 9 10 11 14 16 17 19 19 20 21 21 21 21 22 22 21 21 20 20 20 20 20 19 19 18 18 18 18 18 18 18
12 12 11 10 9 10 10 10 11 11 11 10 10 10 10 12 13 14 15 17 19 20 21 21 22 23 23 22 22 22 22 22 22 22 21 21 20 19 19 19 18 19 19 19
13 13 12 12 13 13 14 14 13 13 12 12 12 12 12 13 14 15 16 16 18 19 20 22 22 22 23 23 24 23 23 22 22 23 22 21 20 20 19 19 19 19 19 20
13 13 14 14 15 15 15 16 16 16 15 14 14 13 13 14 16 17 18 19 20 20 21 22 23 23 23 23 23 23 22 22 23 23 22 22 21 20 20 20 20 20 20 20
Wind_Direction
256 263 264 261 257 252 253 256 250 255 252 256 251 249 254 259 262 262 264 267 269 272 275 275 270 268 268 269 269 270 273 276 276 277 277 277 280 280 279 280 281 282 281 282
258 258 257 256 257 258 258 256 255 256 259 254 254 255 259 262 262 262 265 268 270 271 274 269 266 266 266 266 267 269 273 275 276 277 278 279 280 279 279 280 280 281 282 282
256 254 258 254 246 249 254 249 252 253 256 258 259 258 259 262 262 263 266 266 267 269 270 266 263 263 263 263 265 269 271 273 276 275 275 276 276 276 276 276 279 281 285 283
255 253 252 254 250 247 250 251 251 253 257 259 260 255 258 260 261 264 263 265 267 266 266 265 263 262 262 261 263 264 266 270 270 269 271 273 274 271 273 276 279 282 285 286
251 251 259 258 256 255 252 262 262 260 260 261 258 258 261 260 259 263 262 264 268 266 266 263 261 260 259 257 257 259 266 267 265 264 265 267 271 269 271 276 280 281 283 283
253 255 252 257 259 262 258 256 266 265 268 269 257 256 260 264 265 265 265 264 266 262 262 259 257 255 253 253 255 259 264 264 260 258 261 265 268 268 271 274 278 280 281 280
251 254 258 259 262 262 247 260 267 265 267 267 261 260 265 267 264 265 267 263 263 261 256 253 252 253 252 252 255 262 264 259 257 260 262 265 265 269 271 273 276 278 279 278
250 250 254 259 256 253 257 257 261 262 262 263 260 264 265 267 265 263 263 261 258 255 251 253 251 250 251 255 259 262 258 257 260 262 264 265 266 269 271 273 275 276 276 274
252 255 256 260 260 258 255 257 262 261 261 263 264 264 265 265 266 263 261 258 255 253 248 249 249 250 253 257 260 258 256 260 263 265 266 267 268 269 270 271 273 273 272 270
264 258 260 261 263 262 262 261 262 262 264 266 265 264 263 262 264 263 260 257 253 248 243 246 246 250 255 257 256 255 258 263 266 268 270 271 271 271 270 270 270 270 268 265
267 266 266 264 263 264 263 263 261 261 264 264 262 261 260 260 262 263 257 254 248 244 241 241 244 250 256 251 249 254 262 268 271 274 273 274 273 272 271 269 267 266 264 260
268 269 268 266 264 264 263 262 262 263 263 262 259 258 258 258 259 260 253 247 241 239 238 240 246 249 247 245 249 258 266 272 276 279 279 278 276 274 271 267 263 260 257 253
272 272 271 269 267 265 264 263 264 262 262 260 256 256 255 258 255 253 247 238 233 233 234 243 243 244 239 244 251 259 270 277 281 283 281 279 277 272 267 263 254 250 247 243
278 278 276 273 271 269 266 265 264 263 262 259 254 253 254 254 250 243 239 231 228 229 237 237 237 235 236 242 252 264 274 280 285 284 280 278 274 268 258 249 241 238 240 235
289 283 276 275 273 268 266 267 267 264 262 261 257 254 253 250 247 241 236 226 223 230 229 230 232 231 233 242 254 264 276 284 286 282 279 275 267 256 247 235 231 236 230 231
309 302 289 278 273 266 265 266 265 262 264 266 262 256 247 245 245 240 229 220 221 225 222 228 229 228 232 242 254 267 275 279 282 278 274 266 254 247 240 234 235 237 235 236
321 319 312 294 280 270 266 264 264 266 270 270 263 259 248 245 243 233 223 217 220 218 224 225 226 228 232 241 254 264 274 279 279 274 268 256 248 245 244 241 240 239 239 240
330 324 320 309 298 283 280 271 281 280 280 287 274 264 250 245 231 217 210 206 212 216 221 221 224 226 231 241 252 263 275 279 276 271 263 250 245 244 242 239 237 237 238 240
339 349 345 339 322 310 305 294 292 293 298 311 317 262 245 224 203 195 195 202 204 209 217 218 220 224 231 240 251 263 273 277 271 264 256 247 242 239 237 235 235 236 236 237
334 339 339 344 345 335 331 322 311 304 307 315 339 335 187 172 177 174 183 194 205 212 212 216 221 227 233 241 249 259 269 273 265 257 251 244 239 235 235 234 234 235 236 238
331 325 327 330 330 330 334 334 329 322 313 317 324 55 136 152 162 180 193 201 207 212 217 219 225 230 236 240 247 256 267 270 259 250 243 238 235 233 233 233 234 236 240 244
326 327 326 318 314 316 320 323 324 324 322 314 297 262 221 198 200 206 213 217 219 219 222 226 230 232 236 239 248 256 264 264 253 245 239 236 235 235 235 236 237 240 243 246
320 320 321 320 320 314 312 313 316 314 308 305 294 276 252 239 231 226 226 225 225 228 230 231 232 233 235 242 252 256 261 257 248 240 237 236 237 237 238 239 241 244 247 249
316 316 316 312 316 321 320 320 319 318 313 301 289 273 260 253 246 245 242 236 236 232 232 231 232 235 240 248 252 253 256 250 244 238 236 237 238 239 241 243 246 249 251 252
310 313 313 306 305 310 313 314 316 314 307 302 295 283 271 259 252 247 244 240 235 232 232 235 238 243 248 250 251 253 253 247 241 235 236 237 238 241 244 246 250 253 254 255
302 303 303 300 298 300 300 299 298 301 300 295 288 282 275 266 260 252 245 240 236 236 239 242 245 247 250 252 252 250 246 242 236 234 234 236 239 243 245 249 253 256 257 258
301 303 301 301 299 297 297 295 292 289 288 288 285 283 277 269 260 256 249 246 244 244 246 248 249 251 252 253 247 241 239 237 234 233 234 237 241 245 248 252 255 257 259 260